AirNav   Everest Fuels
 
 900 users online  

02MI Fairplains Airpark
Greenville, Michigan, USA

GOING TO GREENVILLE?


FAA INFORMATION EFFECTIVE 07 OCTOBER 2021

Location

FAA Identifier: 02MI
Lat/Long: 43-09-25.2100N 085-08-56.1400W
43-09.420167N 085-08.935667W
43.1570028,-85.1489278
(estimated)
Elevation: 850 ft. / 259 m (estimated)
From city: 5 miles E of GREENVILLE, MI
Time zone: UTC -4 (UTC -5 during Standard Time)
Zip code: 48838

Airport Operations

Airport use: Private use. Permission required prior to landing
Activation date: 07/2004
Control tower: no
ARTCC: CHICAGO CENTER
FSS: LANSING FLIGHT SERVICE STATION
Attendance: UNATNDD
Segmented circle: no

Airport Communications

CTAF: 122.9
WX AWOS-3 at Y70 (14 nm S): 118.9 (616-523-1852)

Nearby radio navigation aids

VOR radial/distance  VOR name  Freq  Var
VIOr039/27.0VICTORY VOR/DME115.9504W
MOPr218/33.2MOUNT PLEASANT VOR/DME110.6005W
HICr136/35.2WHITE CLOUD VOR/DME117.6001W

Airport Services

Runway Information

Runway 9/27

Dimensions: 2000 x 100 ft. / 610 x 30 m
Surface: turf
RUNWAY 9  RUNWAY 27
Latitude: 43-09.418500N43-09.421833N
Longitude: 085-09.160500W085-08.710833W
Traffic pattern: leftright
Runway heading: 089 true269 true

Airport Ownership and Management from official FAA records

Ownership: Privately-owned
Owner: FAIRPLAINS AIRPARK
3857 DOWNWIND LN
GREENVILLE, MI 48838-8776
Phone 616-890-6400
Manager: RICHARD GRIMES
3857 DOWNWIND LN
GREENVILLE, MI 48838-8776
Phone 616-890-6400

Airport Operational Statistics

Aircraft based on the field: 8
Single engine airplanes: 8
    

Additional Remarks

LCTD 1.65 NM N OF THE IAP FAF TO RWY 28 AT 6D6 ARPT. ACFT ON FNA ARE DSNDG OUT OF 2500 FT MSL. THE MISSED APCH CRS FOR RWY 10 AT 6D6 PASSES 1.5 NM S AT 1340 FT MSL. 6D6 ARPT IS 4.6 NM W, RWY 28 IS 4.31 NM W.
FOR CD CTC GREAT LAKES APCH AT 269-459-3344, WHEN APCH CLSD CTC CHICAGO ARTCC AT 630-906-8921.

Instrument Procedures

There are no published instrument procedures at 02MI.

Some nearby airports with instrument procedures:

6D6 - Greenville Municipal Airport (5 nm W)
Y70 - Ionia County Airport (14 nm S)
13C - Lakeview Airport-Griffith Field (18 nm N)
KAMN - Gratiot Community Airport (22 nm NE)
8D4 - Paul C Miller-Sparta Airport (23 nm W)
 
Loc | Ops | Rwys | IFR | FBO | Links
Com | Nav | Svcs | Stats | Notes
Area around 02MI (Fairplains Airpark)
 
Road maps at: MapQuest Bing Google
 
Aerial photo
WARNING: Photo may not be current or correct
Aerial photo of 02MI (Fairplains Airpark)
Do you have a better or more recent aerial photo of Fairplains Airpark that you would like to share? If so, please send us your photo.

 
Sectional chart

 
Airport distance calculator
Flying to Fairplains Airpark? Find the distance to fly.

From to 02MI

Sunrise and sunset
Times for 19-Oct-2021
 Local
(UTC-4)
 Zulu
(UTC)
Morning civil twilight07:3111:31
Sunrise08:0012:00
Sunset18:5122:51
Evening civil twilight19:2023:20

Current date and time
Zulu (UTC)  19-Oct-2021 12:15:37
Local (UTC-4)  19-Oct-2021 08:15:37
 
METAR
KY70 
14nm S 
191155Z AUTO 22004KT 10SM CLR 08/05 A3009 RMK AO2 T00770050 10086 20062
KAMN 
22nm NE 
191155Z AUTO 00000KT 10SM CLR 04/04 A3010 RMK AO2 T00370037 10047 20028
KGRR 
23nm SW 
191153Z 15004KT 10SM CLR 07/06 A3011 RMK AO2 SLP197 T00670061 10078 20067 51005
TAF
KGRR 
23nm SW 
191120Z 1912/2012 18004KT P6SM SKC FM191500 23010G18KT P6SM BKN250 FM192300 21006KT P6SM FEW100
NOTAMs
Click for the latest NOTAMs
NOTAMs are issued by the DoD/FAA and will open in a separate window not controlled by AirNav.

 

 
 

Would you like to see your business listed on this page?

 If your business provides an interesting product or service to pilots, flight crews, aircraft, or users of the Fairplains Airpark, you should consider listing it here.  To start the listing process, click on the button below
 
Add a business
 

Other Pages about Fairplains Airpark

Update a link
 
Copyright © AirNav, LLC. All rights reserved. Privacy Policy  Contact